Sacramento International, CA

5:29 AM PDT on April 28, 2017 (GMT -0700)
Sacramento International

Weather History for KSMF - June, 2014

Change the Weather History Date:

Sunday, June 29, 2014

  Actual Average Record
Temperature  
Mean Temperature 80 °F -  
Max Temperature 98 °F 87 °F 108 °F (2013)
Min Temperature 62 °F 56 °F 49 °F (1949)
Cooling Degree Days 14    
Growing Degree Days 30 (Base 50)    
Moisture  
Dew Point 51 °F    
Average Humidity 41    
Maximum Humidity 70    
Minimum Humidity 16    
Precipitation  
Precipitation 0.00 in - - ()
Sea Level Pressure  
Sea Level Pressure 29.84 in    
Wind  
Wind Speed 6 mph (WSW)    
Max Wind Speed 10 mph    
Max Gust Speed -    
Visibility 10 miles    
Events      
Averages and records for this station are not official NWS values.
T = Trace of Precipitation, MM = Missing Value Source: NWS Daily Summary

Daily Weather History Graph

Daily Weather History Graph

Search for Another Location

Airport or City:

Trip Planner

Search our weather history database for the weather conditions in past years. The results will help you decide how hot, cold, wet, or windy it might be!

Date:

Astronomy

Jun. 29, 2014 Rise Set
Actual Time 5:44 AM PDT 8:35 PM PDT
Civil Twilight 5:12 AM PDT 9:06 PM PDT
Nautical Twilight 4:32 AM PDT 9:46 PM PDT
Astronomical Twilight 3:46 AM PDT 10:32 PM PDT
Moon 8:05 AM PDT (6/29) 10:00 PM PDT (6/29)
Length of Visible Light 15h 54m
Length of Day
14h 50m
Waxing Crescent, 6% of the Moon is Illuminated
Jun 29
Waxing Crescent
Jul 5
First Quarter
Jul 12
Full
Jul 18
Last Quarter
Jul 26
New

Hourly Weather History & Observations

Time (PDT) Temp. Heat Index Dew Point Humidity Pressure Visibility Wind Dir Wind Speed Gust Speed Precip Events Conditions
12:53 AM 69.1 °F - 51.1 °F 53% 29.85 in 10.0 mi SE 8.1 mph - N/A   Clear
1:53 AM 66.9 °F - 51.1 °F 57% 29.85 in 10.0 mi SSE 8.1 mph - N/A   Clear
2:53 AM 64.9 °F - 51.1 °F 61% 29.85 in 10.0 mi South 8.1 mph - N/A   Clear
3:53 AM 64.0 °F - 51.1 °F 63% 29.86 in 10.0 mi SSE 8.1 mph - N/A   Clear
4:53 AM 63.0 °F - 52.0 °F 67% 29.87 in 10.0 mi SSE 8.1 mph - N/A   Clear
5:53 AM 62.1 °F - 52.0 °F 70% 29.88 in 10.0 mi South 3.5 mph - N/A   Clear
6:53 AM 64.0 °F - 52.0 °F 65% 29.89 in 10.0 mi Calm Calm - N/A   Clear
7:53 AM 66.9 °F - 54.0 °F 63% 29.91 in 10.0 mi NE 3.5 mph - N/A   Clear
8:53 AM 72.0 °F - 54.0 °F 53% 29.91 in 10.0 mi Calm Calm - N/A   Clear
9:53 AM 79.0 °F - 53.1 °F 40% 29.90 in 10.0 mi Variable 3.5 mph - N/A   Clear
10:53 AM 82.0 °F - 50.0 °F 33% 29.89 in 10.0 mi NNW 6.9 mph - N/A   Clear
11:53 AM 87.1 °F - 52.0 °F 30% 29.88 in 10.0 mi WNW 8.1 mph - N/A   Clear
12:53 PM 90.0 °F - 51.1 °F 26% 29.87 in 10.0 mi NW 10.4 mph - N/A   Clear
1:53 PM 91.9 °F - 51.1 °F 25% 29.85 in 10.0 mi NW 9.2 mph - N/A   Clear
2:53 PM 93.9 °F - 48.0 °F 21% 29.83 in 10.0 mi NNE 8.1 mph - N/A   Clear
3:53 PM 97.0 °F - 48.0 °F 19% 29.81 in 10.0 mi North 8.1 mph - N/A   Clear
4:53 PM 96.1 °F - 46.9 °F 19% 29.79 in 10.0 mi Calm Calm - N/A   Clear
5:53 PM 97.0 °F - 46.0 °F 18% 29.77 in 10.0 mi North 6.9 mph - N/A   Partly Cloudy
6:53 PM 97.0 °F - 43.0 °F 16% 29.76 in 10.0 mi North 3.5 mph - N/A   Partly Cloudy
7:53 PM 93.0 °F - 41.0 °F 16% 29.76 in 10.0 mi Calm Calm - N/A   Partly Cloudy
8:53 PM 88.0 °F - 46.0 °F 23% 29.76 in 10.0 mi Calm Calm - N/A   Partly Cloudy
9:53 PM 81.0 °F - 52.0 °F 36% 29.77 in 10.0 mi SSW 5.8 mph - N/A   Partly Cloudy
10:53 PM 80.1 °F 80.4 °F 57.0 °F 45% 29.77 in 10.0 mi SW 4.6 mph - N/A   Clear
11:53 PM 75.9 °F - 59.0 °F 56% 29.77 in 10.0 mi SW 3.5 mph - N/A   Clear